Location: *
(58.7167°N, 26.1833°E)
Time: 04:56:14
(UTC+00:00)

Cosmos 1441 Rocket - Pass Details

Date: 25 August 2019
Orbit: 496 x 542 km, 81.1° (Epoch: 16 September)

Event Time Altitude Azimuth Distance (km) Brightness Sun altitude
Exits shadow 20:37:15 35° 116° (ESE) 883 3.9 -17.7°
Maximum altitude 20:37:48 37° 96° (E) 849 4.0 -17.8°
Drops below altitude 10° 20:41:27 10° 29° (NNE) 1,794 6.4 -18.0°
Sets 20:43:42 0° 21° (NNE) 2,681 7.5 -18.1°
